You are not logged in, Click here to log in
聖杜蒙特機場SDU / SBRJ 巴西聯邦共和國舊都、里約熱內盧州首府、第二大城市里約熱內盧
ICAO: SBRJ Country: 巴西聯邦共和國舊都、里約熱內盧州首府、第二大城市里約熱內盧
Latitude: -22.9105 Longitude: -43.1631
Total Arrivals: 5 Total Departures: 4
Latest Arrival: JJ3932 (SBSP-SBRJ)Stone. Chang Latest Departure: AD57982 (SBRJ-SBLO)Stone. Chang
Scenery:
METAR : SBRJ 080200Z 15003KT CAVOK 21/19 Q1016

聖杜蒙特機場SDU